Location: Unspecified
(0.0000°N, 0.0000°E)
Time: 03:41:39
(UTC+00:00)

DMSP B5D2-5 - Pass Details

Date: 18 June 2023
Orbit: 711 x 814 km, 98.7° (Epoch: 28 September)

Event Time Altitude Azimuth Distance (km) Brightness Sun altitude
Exits shadow 19:44:50 23° 190° (S) 1,528 6.4 -23.6°
Maximum altitude 19:47:42 52° 258° (WSW) 905 5.6 -24.3°
Drops below altitude 10° 19:52:30 10° 334° (NNW) 2,257 8.1 -25.4°
Sets 19:54:52 0° 339° (NNW) 3,195 8.9 -25.9°
